Regional Weather Roundup
Issued by NWS

Home | Current Version | Previous Version | Text Only | Print | Product List | Glossary Off
Versions: 1 2 3 4 5 6 7 8 9 10 11 12 13 14 15 16 17 18 19 20 21 22 23 24 25 26 27 28 29 30 31 32 33 34 35 36 37 38 39 40 41 42 43 44 45 46 47 48 49 50

000
ASUS43 KMKX 090911
RWRWI

WISCONSIN REGIONAL WEATHER ROUNDUP
NATIONAL WEATHER SERVICE MILWAUKEE/SULLIVAN WI
300 AM CST TUE FEB 09 2016

NOTE: "FAIR" INDICATES FEW OR NO CLOUDS BELOW 12,000 FEET WITH NO
SIGNIFICANT WEATHER AND/OR OBSTRUCTIONS TO VISIBILITY.

WIZ001-002-006>008-014>016-023>028-091000-
NORTHWEST WISCONSIN

CITY           SKY/WX    TMP DP  RH WIND       PRES   REMARKS
SUPERIOR ARPT  CLOUDY     6  -2  68 N10G17    30.03R WCI  -8
ASHLAND        CLOUDY     9   4  80 NW9       29.93R WCI  -4
HAYWARD        CLOUDY     4  -2  76 VRB3      29.91S
SIREN          PTCLDY     4  -3  72 N7G17     30.00R WCI  -8
CUMBERLAND     MOCLDY     3  -2  78 NW12      29.93S WCI -13
RICE LAKE      CLEAR      4  -2  75 NW7       29.95S WCI  -8
CHETEK         CLOUDY     5  -1  75 MISG      29.93S
LADYSMITH      LGT SNOW   7   2  79 NW15      29.88S WCI -10
EAU CLAIRE     CLOUDY     7  -2  66 NW13G23   29.92S WCI  -9
MENOMONIE      PTCLDY     7  -1  68 NW10      29.96R WCI  -7
NEW RICHMOND   FLURRIES   7   0  72 NW16G22   29.98R WCI -11
OSCEOLA        MOCLDY     8   0  70 NW14G23   30.03R WCI  -8
$$

WIZ003>005-009-010-017-018-091000-
NORTH CENTRAL WISCONSIN

CITY           SKY/WX    TMP DP  RH WIND       PRES   REMARKS
MANITOWISH WTR LGT SNOW  10   6  84 N7        29.76R WCI  -1
ARBOR VITAE    LGT SNOW  12   6  79 N10G17    29.74S WCI  -2
WOODRUFF       LGT SNOW  12   6  79 N10G17    29.74S WCI  -2
RHINELANDER    CLOUDY     9   4  80 VRB3      29.73S
EAGLE RIVER    LGT SNOW  10   4  75 N10       29.72S WCI  -3
LAND O LAKES   LGT SNOW  11   6  81 N13G20    29.73S WCI  -4
PHILLIPS       CLOUDY     7   2  80 NW10G18   29.79S WCI  -7
TOMAHAWK       LGT SNOW   8   4  82 NW7       29.77S WCI  -3
MEDFORD        LGT SNOW   7   2  83 NW14      29.79R WCI -10
MERRILL        LGT SNOW   8   3  81 NW8       29.78S WCI  -5
$$

WIZ029-030-035-036-043>047-091000-
CENTRAL WISCONSIN

CITY           SKY/WX    TMP DP  RH WIND       PRES   REMARKS
WAUSAU         CLOUDY     9   2  73 NW9       29.77R WCI  -4
MOSINEE        FLURRIES   9   3  78 NW12      29.79S WCI  -6
MARSHFIELD     CLOUDY     8   0  69 NW16      29.80R WCI -10
STEVENS POINT  FLURRIES   7   2  77 NW8       29.80S WCI  -5
WAUPACA        CLOUDY    15   7  71 W10       29.80R WCI   2
WAUTOMA        CLOUDY    11   4  73 NW14G20   29.81R WCI  -5
WISC RAPIDS    CLEAR      8   0  69 NW10      29.83S WCI  -6
CAMP DOUGLAS   FLURRIES   8   5  88 NW13      29.85R WCI  -8
$$

WIZ011>013-019>022-031-037>040-048>050-091000-
NORTHEAST WISCONSIN

CITY           SKY/WX    TMP DP  RH WIND       PRES   REMARKS
ANTIGO         FLURRIES   7   4  86 NW12      29.73R WCI  -8
SHAWANO        LGT SNOW  15  10  77 W6        29.78S WCI   7
OCONTO         CLOUDY    16   7  68 NW10      29.76S WCI   3
STURGEON BAY   CLOUDY    16   7  67 NW15      29.74F WCI   1
GREEN BAY      CLOUDY    15  11  83 NW10      29.76S WCI   2
MANITOWOC      CLOUDY    16  11  80 NW10      29.74S WCI   4
APPLETON       FLURRIES  14   7  73 W14       29.74S WCI  -1
CLINTONVILLE   FLURRIES  14   9  79 NW14      29.77S WCI  -1
OSHKOSH        LGT SNOW  14   8  77 NW17      29.76S WCI  -3
$$

WIZ032>034-041-042-053>061-091000-
SOUTHWEST WISCONSIN

CITY           SKY/WX    TMP DP  RH WIND       PRES   REMARKS
LA CROSSE      MOCLDY     9   0  67 N9        29.93R WCI  -4
SPARTA         LGT SNOW   9   4  77 NW9G17    29.90S WCI  -4
VIROQUA        MOCLDY     8   2  76 NW15      29.84S WCI -10
BOSCOBEL       PTCLDY    13   4  67 N12G17    29.89S WCI  -1
PRAIRIE DU CHI CLOUDY    13   2  62 NW10      29.91R WCI   0
PLATTEVILLE    PTCLDY    12   8  85 NW8       29.82S WCI   0
$$

WIZ056-057-062-063-064-067-068-091000-
SOUTH CENTRAL WISCONSIN

CITY           SKY/WX    TMP DP  RH WIND       PRES   REMARKS
REEDSBURG      MOCLDY    10   3  75 NW12      29.83S WCI  -5
BARABOO/DELLS  MOCLDY    10   3  74 NW13G18   29.82R WCI  -5
LONE ROCK      CLOUDY    12   4  70 N13G21    29.86R WCI  -3
MINERAL POINT  FLURRIES  14   9  79 NW10      29.80S WCI   1
MADISON        LGT SNOW  12   7  80 N13G22    29.79S WCI  -3
MIDDLETON      CLOUDY    14   8  77 NW14      29.80S WCI   0
WATERTOWN      FLURRIES  14  11  87 NW12G18   29.76S WCI   0
MONROE         LGT SNOW  14  10  85 N9G16     29.77S WCI   2
JANESVILLE     LGT SNOW  18  12  79 NW12G17   29.77S WCI   5
$$

WIZ051-052-058>065-066-070>072-091000-
SOUTHEAST WISCONSIN

CITY           SKY/WX    TMP DP  RH WIND       PRES   REMARKS
MILWAUKEE      LGT SNOW  18  13  80 NW12      29.73R WCI   5
WAUKESHA       CLOUDY    14  10  85 NW13      29.73F WCI   0
MILWAUKEE/TIMM LGT SNOW  18  12  79 NW9       29.74S WCI   6
RACINE         FLURRIES  19  12  74 NW12      29.73S WCI   7
BURLINGTON     CLOUDY    15  10  82 NW13      29.74S WCI   1
KENOSHA        FLURRIES  18  12  77 NW10      29.72S WCI   6
FOND DU LAC    LGT SNOW  15   9  76 NW17G24   29.76S WCI  -1
SHEBOYGAN      LGT SNOW  16  11  80 NW8       29.73S WCI   5
WEST BEND      LGT SNOW  18  12  79 NW13G18   29.73S WCI   4
JUNEAU         FLURRIES  12   8  83 NW10G17   29.76F WCI  -1
$$

LSZ147-162-091000-
LAKE SUPERIOR

STATION/POSITION TIME  TEMP    WIND        PRES    WAVE
                       AIR SEA DIR/SP/G            HT/PER
                 (UTC) (F)     (DEG/KT/KT) (MB)    (FT/S)
DEVILS ISLAND    0900   12     350/ 25/ 31 1015.3R
PORT WING        0800   12     330/ 18/ 22 1015.2R
SAXON HARBOR     0800   16                 1011.9S
$$

LMZ867-665-643>646-091000-
LAKE MICHIGAN

STATION/POSITION TIME  TEMP    WIND        PRES    WAVE
                       AIR SEA DIR/SP/G            HT/PER
                 (UTC) (F)     (DEG/KT/KT) (MB)    (FT/S)
CHAMBERS ISLAND  0800   16     310/ 16/ 22 1006.8F
NORTHPORT PIER   0805   17     320/ 21     1006.4R
ALGOMA LAKESHORE 0811          320/ 10/ 14   N/A
KEWAUNEE LAKESHO 0800   16     330/  6/ 11 1006.4R
SHEBOYGAN LAKESH 0900   18     330/ 14/ 16 1008.1R
PORT WASHINGTON  0840   19     320/ 11/ 16 1008.1R
MILWAUKEE LAKESH 0810   19     310/ 11/ 13   N/A
KENOSHA   LAKESH 0900   18     310/ 12/ 19 1006.4S
$$

TC  - TEMPERATURE IN CELSIUS
VSB - VISIBILITY IN STATUTE MILES
WCI - WIND CHILL INDEX
HX  - HEAT INDEX




USA.gov is the U.S. government's official web portal to all federal, state and local government web resources and services.